SCP
0 -0 -0 -0 -0 -0 -0 -0 0 -0 -0 0 0 0 0 0 0 -0 -0 -0 -0 -0 -0 -0 -0 -0 -0 -0 -0 -0 -0 0 -0 -0 -0 -0 -0 0 0 0 -0 -0 -0
-0 -0 -0 -0 -0 -0 -0 -0 0 0 0 0 0 -0 0 0 -0 -0 -0 -0 -0 -0 -0 -0 -0 -0 -0 -0 0 0 0 -0 -0 -0 -0 -0 0 0 0 0 0 -0 -0
-0 -0 -0 -0 -0 -0 -0 -0 0 0 -0 -0 -0 -0 0 -0 -0 -0 -0 -0 -0 -0 -0 -0 -0 -0 -0 0 0 -0 -0 -0 -0 -0 -0 0 0 0 0 0 0 -0 0
-0 -0 -0 -0 -0 -0 -0 -0 -0 -0 -0 -0 -0 -0 -0 -0 -0 -0 -0 -0 -0 -0 -0 -0 -0 -0 -0 -0 -0 -0 -0 -0 -0 -0 -0 0 -0 -0 -0 -0 -0 -0 -0
0 0 0 -0 -0 -0 -0 0 -0 -0 -0 -0 0 0 -0 -0 -0 -0 -0 -0 -0 -0 -0 -0 -0 0 -0 -0 -0 -0 -0 -0 -0 -0 0 -0 -0 -0 -0 -0 -0 0 -0
0 0 0 0 -0 -0 0 0 -0 -0 -0 -0 -0 -0 -0 -0 -0 -0 -0 -0 -0 -0 -0 -0 -0 0 -0 -0 -0 -0 -0 0 0 0 0 -0 -0 -0 -0 -0 -0 -0 0
0 0 0 0 0 0 0 0 0 0 0 0 0 0 -0 -0 -0 -0 -0 -0 -0 -0 -0 -0 0 0 0 0 -0 -0 -0 0 0 0 0 -0 -0 0 -0 -0 0 0 0
0 0 0 0 0 0 0 0 0 0 0 0 0 0 0 -0 0 0 0 0 0 0 0 0 0 0 0 0 0 0 0 0 0 0 0 -0 -0 -0 -0 -0 0 0 0
0 0 0 0 0 0 0 0 0 0 0 0 0 0 0 0 0 0 0 0 0 0 0 0 0 0 0 0 0 0 -0 -0 0 0 0 -0 -0 -0 -0 0 0 0 0
0 0 0 0 0 0 0 0 0 0 0 0 0 0 0 0 0 0 0 0 0 0 0 0 0 0 0 0 0 0 -0 0 0 0 0 -0 -0 -0 -0 0 0 0 0
0 0 0 0 0 0 0 0 0 0 0 0 0 0 0 0 0 0 0 0 0 0 0 0 0 0 0 0 0 0 0 0 0 0 0 0 0 0 0 0 0 0 0
0 0 0 0 0 0 0 0 0 0 0 0 0 0 0 0 0 0 0 0 0 0 0 0 0 0 0 0 0 0 0 0 0 0 0 0 0 0 0 0 0 0 0
0 0 0 0 0 0 0 0 0 0 0 0 0 0 0 0 0 0 0 0 0 0 0 0 0 0 0 0 0 0 0 0 0 0 0 0 0 0 0 0 0 0 0
0 0 0 0 0 0 0 0 0 0 0 0 0 0 0 0 0 0 0 0 0 0 0 0 0 0 0 0 0 0 0 0 0 0 0 0 0 0 0 0 0 0 0
0 0 0 0 0 0 0 0 0 0 0 0 0 0 0 0 0 0 0 0 0 0 0 0 0 0 0 0 0 0 0 0 0 0 0 0 0 0 0 0 0 0 0
0 0 0 0 0 0 0 0 0 0 0 0 0 0 0 0 0 0 0 0 0 0 0 0 0 0 0 0 0 0 0 0 0 0 0 0 0 0 0 0 0 0 0
0 0 0 0 0 0 0 0 0 0 0 0 0 0 0 0 0 0 0 0 0 0 0 0 0 0 0 0 0 0 0 0 0 0 0 0 0 0 0 0 0 0 0
0 0 0 0 0 0 0 0 0 0 0 0 0 0 0 0 0 0 0 0 0 0 0 0 0 0 0 0 0 0 0 0 0 0 0 0 0 0 0 0 0 0 0
0 0 0 0 0 0 0 0 0 0 0 0 0 0 0 0 0 0 0 0 0 0 0 0 0 0 0 0 0 0 0 0 0 0 0 0 0 0 0 0 0 0 0
0 0 0 0 0 0 0 0 0 0 0 0 0 0 0 0 0 0 0 0 0 0 0 0 0 0 0 0 0 0 0 0 0 0 0 0 0 0 0 0 0 0 0
0 0 0 0 0 0 0 0 0 0 0 0 0 0 0 0 0 0 0 0 0 0 0 0 0 0 0 0 0 0 0 0 0 0 0 0 0 0 0 0 0 0 0
0 0 0 0 0 0 0 0 0 0 0 0 0 0 0 0 0 0 0 0 0 0 0 0 0 0 0 0 0 0 0 0 0 0 0 0 0 0 0 0 0 0 0
0 0 0 0 0 0 0 0 0 0 0 0 0 0 0 0 0 0 0 0 0 0 0 0 0 0 0 0 0 0 0 0 0 0 0 0 0 0 0 0 0 0 0
0 0 0 0 0 0 0 0 0 0 0 0 0 0 0 0 0 0 0 0 0 0 0 0 0 0 0 0 0 0 0 0 0 0 0 0 0 0 0 0 0 0 0
0 0 0 0 0 0 0 0 0 0 0 0 0 0 0 0 0 0 0 0 0 0 0 0 0 0 0 0 0 0 0 0 0 0 0 0 0 0 0 0 0 0 0
0 0 0 0 0 0 0 0 0 0 0 0 0 0 0 0 0 0 0 0 0 0 0 0 0 0 0 0 0 0 0 0 0 0 0 0 0 0 0 0 0 0 0
Wind_Speed_500mb
57 54 47 39 39 35 32 30 35 36 30 25 21 25 34 38 31 36 39 42 29 16 6 11 15 15 21 30 32 31 34 34 32 32 31 27 28 27 25 20 17 19 22
57 56 47 43 39 34 32 30 33 34 32 26 23 30 41 34 32 31 31 28 23 11 1 4 8 14 19 25 27 29 31 31 29 30 27 24 25 24 21 19 18 14 12
54 55 48 44 38 32 31 31 33 32 31 25 30 46 39 31 30 28 26 15 8 7 6 2 8 16 18 22 24 26 27 27 25 25 22 20 21 21 19 17 15 14 13
52 55 50 44 37 32 30 32 32 31 31 30 45 45 35 29 26 23 16 11 11 10 5 10 14 16 18 20 20 20 20 21 20 19 17 16 16 19 16 15 14 13 13
52 53 49 43 36 33 32 39 36 33 30 35 44 38 30 26 20 19 16 14 12 8 11 15 16 16 16 17 17 18 16 16 15 15 15 14 11 15 12 12 12 12 14
51 51 47 42 36 34 34 45 41 37 32 32 37 37 31 28 23 13 11 13 13 10 17 17 14 13 12 11 12 12 11 10 10 10 9 9 10 8 8 10 10 11 13
48 47 45 40 38 37 41 41 38 34 30 28 36 43 31 26 15 11 8 11 15 15 17 17 14 11 8 5 4 5 5 5 6 7 6 6 6 6 7 8 9 11 13
43 47 43 37 39 39 45 43 38 33 28 26 28 46 35 23 16 10 9 15 16 17 17 15 12 9 6 3 2 2 3 5 5 6 6 5 6 7 8 9 10 10 11
43 45 41 37 39 38 45 37 35 33 30 27 28 39 32 25 19 15 14 14 15 15 15 14 13 10 8 6 7 7 8 8 8 8 8 8 8 8 9 10 11 12 12
46 47 43 38 40 42 48 39 38 36 32 32 29 29 29 24 20 17 17 16 16 16 15 14 12 12 11 10 10 11 11 12 10 9 10 9 9 10 11 12 12 13 14
47 50 48 42 43 44 51 47 43 40 34 32 32 28 26 24 22 21 19 18 17 16 15 15 14 13 12 13 13 13 12 10 10 10 9 9 10 11 13 14 14 15 15
50 52 53 50 46 46 50 54 49 43 39 38 37 28 23 21 21 22 21 20 18 18 17 16 14 13 14 14 14 12 11 11 11 11 12 12 12 13 14 15 15 16 16
47 51 52 51 47 47 51 56 50 44 44 46 41 30 24 22 22 24 23 19 17 19 19 18 16 15 15 13 12 12 12 12 12 13 14 15 15 15 16 16 16 16 17
44 43 48 52 48 51 50 54 50 46 43 47 41 33 27 25 24 22 25 21 19 21 21 19 18 17 15 13 13 12 12 13 15 15 16 17 16 16 17 18 18 17 16
47 48 50 52 53 54 53 54 52 49 51 49 44 37 31 28 28 28 26 25 23 23 21 22 22 21 17 16 15 13 14 16 18 16 17 17 18 19 20 21 21 17 16
52 51 52 54 53 56 58 58 54 54 50 52 50 41 33 29 29 32 31 27 24 23 23 21 21 20 19 18 17 18 18 19 18 20 21 21 24 27 27 27 26 20 17
53 61 55 53 55 58 60 61 59 57 59 60 50 43 37 33 30 29 32 31 27 26 26 22 21 21 20 21 19 20 22 21 21 22 24 28 30 30 32 30 26 18 15
41 57 66 59 54 59 61 62 61 61 62 55 50 47 41 36 33 31 31 32 28 29 27 26 24 23 23 24 23 22 22 23 24 24 27 32 30 25 22 18 12 10 12
42 44 64 68 60 57 59 59 61 60 60 55 50 48 44 40 37 37 36 33 32 32 31 29 27 26 25 24 25 25 23 25 24 25 25 19 16 12 8 7 7 7 8
40 39 54 63 64 57 59 56 57 58 56 55 53 49 44 42 43 41 37 34 34 36 35 32 30 29 28 26 27 28 24 27 27 23 13 13 8 8 6 4 3 5 6
41 42 45 61 61 63 65 60 57 61 58 56 52 47 44 38 37 41 38 35 36 40 36 34 33 34 33 26 30 28 22 29 22 15 6 5 4 2 2 5 5 5 8
39 40 45 51 55 65 66 61 59 57 56 48 40 44 45 45 44 42 43 40 41 41 38 39 39 39 37 29 29 20 9 9 10 16 5 4 3 4 4 6 8 11 7
40 36 43 47 49 63 69 63 59 58 58 56 56 52 46 46 48 45 45 45 42 44 45 42 41 40 40 33 29 21 13 12 5 12 9 8 13 6 2 4 7 8 12
38 34 33 48 48 49 61 65 63 64 60 55 48 48 47 47 50 54 49 46 48 47 49 49 48 51 49 45 37 36 36 36 23 12 20 18 15 12 13 6 4 11 16
36 34 35 45 51 47 50 55 58 58 58 59 51 51 55 59 60 62 61 57 56 57 55 56 58 63 61 60 44 38 39 42 43 42 24 27 18 3 12 12 14 11 12
17 25 27 34 40 32 36 40 46 47 56 58 56 53 45 53 60 66 70 69 66 66 67 72 68 67 63 52 42 41 39 30 9 9 6 6 24 17 12 10 9 12 8
Wind_Direction_500mb
179 180 176 178 174 177 187 188 186 188 180 176 168 152 148 141 130 126 131 131 145 153 108 55 56 78 93 95 93 92 91 89 88 85 83 89 94 91 91 99 105 95 86
174 179 177 179 180 185 185 182 180 185 180 177 174 163 148 150 147 152 156 160 157 168 11 43 66 92 105 99 98 95 94 92 90 87 84 83 86 86 87 88 93 87 70
178 178 179 182 188 186 184 180 178 174 172 166 155 147 145 161 170 177 177 166 183 236 278 174 111 113 107 107 106 100 94 90 89 88 88 87 88 83 81 80 78 71 61
180 179 181 183 187 185 179 172 163 170 166 154 147 145 160 168 185 186 191 204 233 263 227 163 138 131 114 109 110 105 95 90 86 84 85 84 82 73 68 68 65 59 49
182 183 183 185 188 182 178 163 171 177 168 160 154 156 168 178 196 194 209 223 233 246 178 152 147 140 125 115 111 102 95 87 79 73 73 75 74 58 45 49 46 41 35
183 186 186 187 187 182 177 166 173 181 178 180 173 172 169 180 203 205 215 213 207 184 157 148 147 147 135 115 101 93 89 84 75 68 65 57 50 53 35 27 25 19 25
184 186 189 192 188 182 174 171 180 186 188 195 195 188 190 201 196 184 178 171 165 155 148 149 150 149 147 132 101 83 71 56 48 39 33 29 27 17 15 4 6 7 12
188 188 192 192 187 185 180 179 184 185 184 176 182 185 190 194 198 215 192 168 162 155 152 155 157 162 177 202 258 308 326 336 342 350 353 332 333 344 352 349 350 353 358
193 196 195 190 185 188 182 183 190 185 180 183 174 182 197 216 225 221 202 182 172 169 170 171 177 191 213 241 267 287 301 308 310 309 316 312 310 325 339 341 341 341 340
199 200 201 192 187 187 182 188 191 198 192 190 192 203 212 221 224 218 205 193 185 185 186 190 202 217 227 242 263 280 289 291 293 299 303 295 300 311 320 327 332 331 332
202 203 204 202 195 193 190 190 197 199 206 205 209 212 218 227 229 218 209 202 197 197 197 201 211 227 242 255 268 279 288 293 294 301 299 302 299 301 307 314 325 329 327
205 206 209 207 203 199 200 198 203 207 199 199 209 221 224 228 222 216 209 206 207 212 215 222 233 241 251 260 267 274 280 286 288 292 290 287 287 291 297 307 316 322 321
213 214 212 210 209 205 202 202 204 204 197 204 215 224 226 230 225 219 214 213 219 225 226 234 245 254 256 252 260 273 273 280 286 288 288 286 289 295 300 304 308 312 316
220 224 219 215 213 210 206 205 202 199 207 216 220 226 233 237 232 225 218 222 231 227 233 243 250 255 249 255 263 272 277 282 285 285 283 286 289 292 296 300 304 307 315
226 221 226 223 215 215 211 207 202 202 212 218 230 230 240 244 238 233 230 237 240 238 244 249 246 243 245 256 265 272 281 285 285 282 282 283 285 288 292 297 300 303 304
248 234 230 231 222 219 217 211 207 206 212 226 233 235 245 246 244 237 237 242 243 248 253 252 242 240 249 259 267 277 284 286 284 285 283 281 284 289 290 290 291 290 299
259 249 247 236 228 225 222 218 216 215 216 227 231 237 245 249 250 246 241 239 244 250 250 245 243 246 253 262 269 276 284 285 288 287 284 286 287 290 290 286 284 277 276
264 251 245 237 235 229 225 226 226 222 224 233 228 238 242 250 252 250 247 241 243 244 245 245 248 252 256 263 270 280 286 284 285 279 287 291 291 291 285 280 267 264 268
281 252 246 239 237 233 229 229 231 230 230 233 234 238 242 247 247 249 250 244 241 241 245 247 250 256 260 267 273 277 282 283 279 279 292 292 293 291 282 272 263 256 247
272 260 247 243 238 234 230 233 235 234 229 231 235 238 242 243 246 247 248 244 241 242 242 245 251 259 263 269 276 281 286 286 276 280 269 281 282 289 285 264 213 242 240
257 258 236 236 235 229 226 230 232 232 230 232 236 237 238 237 245 241 242 243 243 245 248 252 255 256 262 271 278 284 290 287 270 226 243 244 270 311 259 247 240 243 271
246 255 240 231 231 229 228 230 232 231 232 232 239 237 238 235 245 246 243 244 244 247 247 248 252 258 261 262 266 293 301 288 229 206 250 241 246 316 263 248 255 278 283
231 240 235 230 231 230 228 228 231 232 232 230 233 233 236 241 249 253 249 248 248 249 250 252 254 258 261 257 249 250 268 240 208 225 252 260 239 330 267 254 270 269 293
214 223 237 231 231 230 228 228 230 233 233 238 242 248 240 245 252 251 252 250 252 252 251 253 251 250 250 246 237 240 252 256 259 246 238 224 207 218 246 220 276 298 297
209 225 235 233 235 233 229 231 237 240 245 246 246 250 251 249 243 244 248 255 256 257 258 255 253 253 250 243 235 239 247 252 254 252 230 219 208 65 29 10 351 330 314
201 220 225 227 229 234 227 231 235 248 249 249 252 250 250 252 250 250 247 249 252 255 256 258 255 253 251 235 233 243 252 249 231 134 142 86 92 43 2 14 30 38 39
Wind_Speed_850mb
57 54 47 39 39 35 32 30 35 36 30 25 21 25 34 38 31 36 39 42 29 16 6 11 15 15 21 30 32 31 34 34 32 32 31 27 28 27 25 20 17 19 22
57 56 47 43 39 34 32 30 33 34 32 26 23 30 41 34 32 31 31 28 23 11 1 4 8 14 19 25 27 29 31 31 29 30 27 24 25 24 21 19 18 14 12
54 55 48 44 38 32 31 31 33 32 31 25 30 46 39 31 30 28 26 15 8 7 6 2 8 16 18 22 24 26 27 27 25 25 22 20 21 21 19 17 15 14 13
52 55 50 44 37 32 30 32 32 31 31 30 45 45 35 29 26 23 16 11 11 10 5 10 14 16 18 20 20 20 20 21 20 19 17 16 16 19 16 15 14 13 13
52 53 49 43 36 33 32 39 36 33 30 35 44 38 30 26 20 19 16 14 12 8 11 15 16 16 16 17 17 18 16 16 15 15 15 14 11 15 12 12 12 12 14
51 51 47 42 36 34 34 45 41 37 32 32 37 37 31 28 23 13 11 13 13 10 17 17 14 13 12 11 12 12 11 10 10 10 9 9 10 8 8 10 10 11 13
48 47 45 40 38 37 41 41 38 34 30 28 36 43 31 26 15 11 8 11 15 15 17 17 14 11 8 5 4 5 5 5 6 7 6 6 6 6 7 8 9 11 13
43 47 43 37 39 39 45 43 38 33 28 26 28 46 35 23 16 10 9 15 16 17 17 15 12 9 6 3 2 2 3 5 5 6 6 5 6 7 8 9 10 10 11
43 45 41 37 39 38 45 37 35 33 30 27 28 39 32 25 19 15 14 14 15 15 15 14 13 10 8 6 7 7 8 8 8 8 8 8 8 8 9 10 11 12 12
46 47 43 38 40 42 48 39 38 36 32 32 29 29 29 24 20 17 17 16 16 16 15 14 12 12 11 10 10 11 11 12 10 9 10 9 9 10 11 12 12 13 14
47 50 48 42 43 44 51 47 43 40 34 32 32 28 26 24 22 21 19 18 17 16 15 15 14 13 12 13 13 13 12 10 10 10 9 9 10 11 13 14 14 15 15
50 52 53 50 46 46 50 54 49 43 39 38 37 28 23 21 21 22 21 20 18 18 17 16 14 13 14 14 14 12 11 11 11 11 12 12 12 13 14 15 15 16 16
47 51 52 51 47 47 51 56 50 44 44 46 41 30 24 22 22 24 23 19 17 19 19 18 16 15 15 13 12 12 12 12 12 13 14 15 15 15 16 16 16 16 17
44 43 48 52 48 51 50 54 50 46 43 47 41 33 27 25 24 22 25 21 19 21 21 19 18 17 15 13 13 12 12 13 15 15 16 17 16 16 17 18 18 17 16
47 48 50 52 53 54 53 54 52 49 51 49 44 37 31 28 28 28 26 25 23 23 21 22 22 21 17 16 15 13 14 16 18 16 17 17 18 19 20 21 21 17 16
52 51 52 54 53 56 58 58 54 54 50 52 50 41 33 29 29 32 31 27 24 23 23 21 21 20 19 18 17 18 18 19 18 20 21 21 24 27 27 27 26 20 17
53 61 55 53 55 58 60 61 59 57 59 60 50 43 37 33 30 29 32 31 27 26 26 22 21 21 20 21 19 20 22 21 21 22 24 28 30 30 32 30 26 18 15
41 57 66 59 54 59 61 62 61 61 62 55 50 47 41 36 33 31 31 32 28 29 27 26 24 23 23 24 23 22 22 23 24 24 27 32 30 25 22 18 12 10 12
42 44 64 68 60 57 59 59 61 60 60 55 50 48 44 40 37 37 36 33 32 32 31 29 27 26 25 24 25 25 23 25 24 25 25 19 16 12 8 7 7 7 8
40 39 54 63 64 57 59 56 57 58 56 55 53 49 44 42 43 41 37 34 34 36 35 32 30 29 28 26 27 28 24 27 27 23 13 13 8 8 6 4 3 5 6
41 42 45 61 61 63 65 60 57 61 58 56 52 47 44 38 37 41 38 35 36 40 36 34 33 34 33 26 30 28 22 29 22 15 6 5 4 2 2 5 5 5 8
39 40 45 51 55 65 66 61 59 57 56 48 40 44 45 45 44 42 43 40 41 41 38 39 39 39 37 29 29 20 9 9 10 16 5 4 3 4 4 6 8 11 7
40 36 43 47 49 63 69 63 59 58 58 56 56 52 46 46 48 45 45 45 42 44 45 42 41 40 40 33 29 21 13 12 5 12 9 8 13 6 2 4 7 8 12
38 34 33 48 48 49 61 65 63 64 60 55 48 48 47 47 50 54 49 46 48 47 49 49 48 51 49 45 37 36 36 36 23 12 20 18 15 12 13 6 4 11 16
36 34 35 45 51 47 50 55 58 58 58 59 51 51 55 59 60 62 61 57 56 57 55 56 58 63 61 60 44 38 39 42 43 42 24 27 18 3 12 12 14 11 12
17 25 27 34 40 32 36 40 46 47 56 58 56 53 45 53 60 66 70 69 66 66 67 72 68 67 63 52 42 41 39 30 9 9 6 6 24 17 12 10 9 12 8
Wind_Direction_850mb
179 180 176 178 174 177 187 188 186 188 180 176 168 152 148 141 130 126 131 131 145 153 108 55 56 78 93 95 93 92 91 89 88 85 83 89 94 91 91 99 105 95 86
174 179 177 179 180 185 185 182 180 185 180 177 174 163 148 150 147 152 156 160 157 168 11 43 66 92 105 99 98 95 94 92 90 87 84 83 86 86 87 88 93 87 70
178 178 179 182 188 186 184 180 178 174 172 166 155 147 145 161 170 177 177 166 183 236 278 174 111 113 107 107 106 100 94 90 89 88 88 87 88 83 81 80 78 71 61
180 179 181 183 187 185 179 172 163 170 166 154 147 145 160 168 185 186 191 204 233 263 227 163 138 131 114 109 110 105 95 90 86 84 85 84 82 73 68 68 65 59 49
182 183 183 185 188 182 178 163 171 177 168 160 154 156 168 178 196 194 209 223 233 246 178 152 147 140 125 115 111 102 95 87 79 73 73 75 74 58 45 49 46 41 35
183 186 186 187 187 182 177 166 173 181 178 180 173 172 169 180 203 205 215 213 207 184 157 148 147 147 135 115 101 93 89 84 75 68 65 57 50 53 35 27 25 19 25
184 186 189 192 188 182 174 171 180 186 188 195 195 188 190 201 196 184 178 171 165 155 148 149 150 149 147 132 101 83 71 56 48 39 33 29 27 17 15 4 6 7 12
188 188 192 192 187 185 180 179 184 185 184 176 182 185 190 194 198 215 192 168 162 155 152 155 157 162 177 202 258 308 326 336 342 350 353 332 333 344 352 349 350 353 358
193 196 195 190 185 188 182 183 190 185 180 183 174 182 197 216 225 221 202 182 172 169 170 171 177 191 213 241 267 287 301 308 310 309 316 312 310 325 339 341 341 341 340
199 200 201 192 187 187 182 188 191 198 192 190 192 203 212 221 224 218 205 193 185 185 186 190 202 217 227 242 263 280 289 291 293 299 303 295 300 311 320 327 332 331 332
202 203 204 202 195 193 190 190 197 199 206 205 209 212 218 227 229 218 209 202 197 197 197 201 211 227 242 255 268 279 288 293 294 301 299 302 299 301 307 314 325 329 327
205 206 209 207 203 199 200 198 203 207 199 199 209 221 224 228 222 216 209 206 207 212 215 222 233 241 251 260 267 274 280 286 288 292 290 287 287 291 297 307 316 322 321
213 214 212 210 209 205 202 202 204 204 197 204 215 224 226 230 225 219 214 213 219 225 226 234 245 254 256 252 260 273 273 280 286 288 288 286 289 295 300 304 308 312 316
220 224 219 215 213 210 206 205 202 199 207 216 220 226 233 237 232 225 218 222 231 227 233 243 250 255 249 255 263 272 277 282 285 285 283 286 289 292 296 300 304 307 315
226 221 226 223 215 215 211 207 202 202 212 218 230 230 240 244 238 233 230 237 240 238 244 249 246 243 245 256 265 272 281 285 285 282 282 283 285 288 292 297 300 303 304
248 234 230 231 222 219 217 211 207 206 212 226 233 235 245 246 244 237 237 242 243 248 253 252 242 240 249 259 267 277 284 286 284 285 283 281 284 289 290 290 291 290 299
259 249 247 236 228 225 222 218 216 215 216 227 231 237 245 249 250 246 241 239 244 250 250 245 243 246 253 262 269 276 284 285 288 287 284 286 287 290 290 286 284 277 276
264 251 245 237 235 229 225 226 226 222 224 233 228 238 242 250 252 250 247 241 243 244 245 245 248 252 256 263 270 280 286 284 285 279 287 291 291 291 285 280 267 264 268
281 252 246 239 237 233 229 229 231 230 230 233 234 238 242 247 247 249 250 244 241 241 245 247 250 256 260 267 273 277 282 283 279 279 292 292 293 291 282 272 263 256 247
272 260 247 243 238 234 230 233 235 234 229 231 235 238 242 243 246 247 248 244 241 242 242 245 251 259 263 269 276 281 286 286 276 280 269 281 282 289 285 264 213 242 240
257 258 236 236 235 229 226 230 232 232 230 232 236 237 238 237 245 241 242 243 243 245 248 252 255 256 262 271 278 284 290 287 270 226 243 244 270 311 259 247 240 243 271
246 255 240 231 231 229 228 230 232 231 232 232 239 237 238 235 245 246 243 244 244 247 247 248 252 258 261 262 266 293 301 288 229 206 250 241 246 316 263 248 255 278 283
231 240 235 230 231 230 228 228 231 232 232 230 233 233 236 241 249 253 249 248 248 249 250 252 254 258 261 257 249 250 268 240 208 225 252 260 239 330 267 254 270 269 293
214 223 237 231 231 230 228 228 230 233 233 238 242 248 240 245 252 251 252 250 252 252 251 253 251 250 250 246 237 240 252 256 259 246 238 224 207 218 246 220 276 298 297
209 225 235 233 235 233 229 231 237 240 245 246 246 250 251 249 243 244 248 255 256 257 258 255 253 253 250 243 235 239 247 252 254 252 230 219 208 65 29 10 351 330 314
201 220 225 227 229 234 227 231 235 248 249 249 252 250 250 252 250 250 247 249 252 255 256 258 255 253 251 235 233 243 252 249 231 134 142 86 92 43 2 14 30 38 39